Date String (YYYY-MM-DD hh:mm:ss) UTC,Instrument flags,absolute air pressure of the measurement (hPa),sample flow rate (lpm),inlet stack bypass flow (lpm),air temperature of the measurement (°C),ambient temperature measured by the external sensor (°C),aerosol sample conditioner tube jacket temperature (°C),OPC LED temperature (°C),internal box temperature (°C),relative humidity of the measurement (%),span deviation,mass concentration of particles derived from Lorenz-Mie calculation of OPC scattering (μg/m³),mass concentration of particles derived from Lorenz-Mie calculation of OPC scattering (μg/m³),mass concentration of particles derived from Lorenz-Mie calculation of OPC scattering (μg/m³)
DateTimeUTC,F1_M11,P_M11,Q1_M11,Q2_M11,T1_M11,T2_M11,T3_M11,T4_M11,T5_M11,U1_M11,ZSPAN_M11,X2_M11,X0_M11,X1_M11
2023-11-08 00:00:00,SystemResetWarning,0822.2,5.01,000.00,027.9,027.2,000.0,036.0,029.6,12.7,0000.0,0003.92,0016.94,0002.03
2023-11-08 00:01:00,SystemResetWarning,0822.3,5.01,000.00,028.0,027.3,000.0,036.1,029.7,12.7,0000.0,0003.94,0016.74,0002.02
2023-11-08 00:02:00,SystemResetWarning,0822.3,5.00,000.00,028.0,027.3,000.0,036.1,029.7,12.7,0000.0,0004.01,0018.20,0002.02
2023-11-08 00:03:00,SystemResetWarning,0822.3,5.00,000.00,028.1,027.4,000.0,036.1,029.7,12.7,0000.0,0004.00,0018.09,0002.00
2023-11-08 00:04:00,SystemResetWarning,0822.4,4.99,000.00,028.1,027.4,000.0,036.2,029.8,12.7,0000.0,0003.96,0017.63,0002.00
2023-11-08 00:05:00,SystemResetWarning,0822.3,5.00,000.00,028.2,027.5,000.0,036.2,029.8,12.7,0000.0,0003.93,0017.31,0002.00
2023-11-08 00:06:00,SystemResetWarning,0822.4,5.00,000.00,028.2,027.5,000.0,036.2,029.9,12.7,0000.0,0003.98,0017.92,0001.99
2023-11-08 00:07:00,SystemResetWarning,0822.4,5.00,000.00,028.2,027.6,000.0,036.3,029.9,12.7,0000.0,0004.01,0019.22,0001.98
2023-11-08 00:08:00,SystemResetWarning,0822.4,4.99,000.00,028.3,026.7,000.0,036.3,029.8,12.7,0000.0,0004.04,0019.96,0001.99
2023-11-08 00:09:00,SystemResetWarning,0822.4,5.00,000.00,028.2,024.2,000.0,036.2,029.4,12.7,0000.0,0004.09,0020.10,0001.99
2023-11-08 00:10:00,SystemResetWarning,0822.4,5.01,000.00,028.0,023.1,000.0,036.2,029.1,12.8,0000.0,0004.15,0020.30,0001.99
2023-11-08 00:11:00,SystemResetWarning,0822.4,5.02,000.00,027.8,023.4,000.0,036.1,028.7,12.9,0000.0,0004.21,0019.91,0001.99
2023-11-08 00:12:00,SystemResetWarning,0822.4,4.98,000.00,027.6,023.9,000.0,036.1,028.5,13.1,0000.0,0004.21,0020.02,0001.99
2023-11-08 00:13:00,SystemResetWarning,0822.4,5.00,000.00,027.6,024.4,000.0,036.0,028.6,13.2,0000.0,0004.16,0020.47,0002.01
2023-11-08 00:14:00,SystemResetWarning,0822.4,5.02,000.00,027.5,024.9,000.0,036.0,028.8,13.3,0000.0,0004.18,0019.55,0002.00
2023-11-08 00:15:00,SystemResetWarning,0822.5,4.99,000.00,027.5,025.3,000.0,036.0,028.9,13.3,0000.0,0004.21,0020.51,0002.01
2023-11-08 00:16:00,SystemResetWarning,0823.1,4.99,000.00,027.5,025.6,000.0,035.9,029.0,13.3,0000.0,0004.25,0020.79,0002.02
2023-11-08 00:17:00,SystemResetWarning,0823.1,5.01,000.00,027.6,025.9,000.0,035.9,029.1,13.3,0000.0,0004.25,0020.53,0002.03
2023-11-08 00:18:00,SystemResetWarning,0822.9,5.01,000.00,027.6,026.1,000.0,035.9,029.1,13.3,0000.0,0004.23,0020.02,0002.03
2023-11-08 00:19:00,SystemResetWarning,0822.6,5.00,000.00,027.6,026.3,000.0,035.9,029.2,13.3,0000.0,0004.26,0020.42,0002.03
2023-11-08 00:20:00,SystemResetWarning,0822.5,5.00,000.00,027.7,026.5,000.0,035.9,029.3,13.3,0000.0,0004.26,0020.77,0002.03
2023-11-08 00:21:00,SystemResetWarning,0822.6,5.00,000.00,027.7,026.6,000.0,036.0,029.3,13.2,0000.0,0004.23,0020.39,0002.03
2023-11-08 00:22:00,SystemResetWarning,0822.6,5.00,000.00,027.7,026.8,000.0,036.0,029.4,13.2,0000.0,0004.16,0020.41,0002.01
2023-11-08 00:23:00,SystemResetWarning,0822.6,5.00,000.00,027.8,026.9,000.0,036.0,029.4,13.2,0000.0,0004.14,0021.70,0002.00
2023-11-08 00:24:00,SystemResetWarning,0822.6,5.00,000.00,027.8,027.0,000.0,036.0,029.5,13.1,0000.0,0004.16,0022.68,0001.97
2023-11-08 00:25:00,SystemResetWarning,0822.6,5.00,000.00,027.9,027.0,000.0,036.0,029.5,13.0,0000.0,0004.20,0022.11,0001.98
2023-11-08 00:26:00,SystemResetWarning,0822.9,5.00,000.00,027.9,027.1,000.0,036.1,029.5,13.0,0000.0,0004.21,0021.58,0001.98
2023-11-08 00:27:00,SystemResetWarning,0822.7,5.00,000.00,027.9,027.2,000.0,036.1,029.6,13.0,0000.0,0004.21,0021.37,0001.97
2023-11-08 00:28:00,SystemResetWarning,0822.8,5.00,000.00,028.0,027.2,000.0,036.1,029.6,13.0,0000.0,0004.20,0021.34,0001.96
2023-11-08 00:29:00,SystemResetWarning,0822.8,5.00,000.00,028.0,027.3,000.0,036.1,029.7,12.9,0000.0,0004.20,0021.53,0001.94
2023-11-08 00:30:00,SystemResetWarning,0823.3,5.00,000.00,028.1,027.3,000.0,036.2,029.7,12.9,0000.0,0004.18,0021.47,0001.93
2023-11-08 00:31:00,SystemResetWarning,0822.9,5.00,000.00,028.1,027.4,000.0,036.2,029.7,12.9,0000.0,0004.19,0021.44,0001.94
2023-11-08 00:32:00,SystemResetWarning,0822.8,5.00,000.00,028.1,027.4,000.0,036.2,029.8,12.9,0000.0,0004.18,0022.03,0001.97
2023-11-08 00:33:00,SystemResetWarning,0822.8,5.00,000.00,028.2,027.5,000.0,036.3,029.8,12.9,0000.0,0004.20,0022.09,0001.99
2023-11-08 00:34:00,SystemResetWarning,0822.9,4.99,000.00,028.2,026.9,000.0,036.3,029.8,12.8,0000.0,0004.21,0021.44,0002.02
2023-11-08 00:35:00,SystemResetWarning,0822.9,5.01,000.00,028.1,024.4,000.0,036.2,029.4,12.9,0000.0,0004.18,0018.56,0002.03
2023-11-08 00:36:00,SystemResetWarning,0823.1,4.99,000.00,027.9,023.0,000.0,036.1,029.1,13.0,0000.0,0004.10,0018.43,0002.04
2023-11-08 00:37:00,SystemResetWarning,0823.0,5.02,000.00,027.8,023.1,000.0,036.1,028.7,13.1,0000.0,0004.07,0018.98,0002.04
2023-11-08 00:38:00,SystemResetWarning,0823.0,4.98,000.00,027.6,023.7,000.0,036.1,028.4,13.2,0000.0,0004.09,0018.76,0002.05
2023-11-08 00:39:00,SystemResetWarning,0822.9,4.99,000.00,027.5,024.2,000.0,036.0,028.5,13.3,0000.0,0004.07,0018.09,0002.07
2023-11-08 00:40:00,SystemResetWarning,0822.9,5.00,000.00,027.5,024.7,000.0,036.0,028.6,13.4,0000.0,0004.09,0017.63,0002.11
2023-11-08 00:41:00,SystemResetWarning,0823.1,5.01,000.00,027.5,025.1,000.0,035.9,028.8,13.4,0000.0,0004.09,0017.37,0002.12
2023-11-08 00:42:00,SystemResetWarning,0822.9,4.99,000.00,027.5,025.4,000.0,035.9,028.9,13.4,0000.0,0004.05,0017.26,0002.14
2023-11-08 00:43:00,SystemResetWarning,0823.0,4.99,000.00,027.5,025.7,000.0,035.9,028.9,13.4,0000.0,0004.02,0016.45,0002.15
2023-11-08 00:44:00,SystemResetWarning,0823.0,5.00,000.00,027.5,026.0,000.0,035.9,029.0,13.3,0000.0,0004.02,0016.19,0002.16
2023-11-08 00:45:00,SystemResetWarning,0823.0,5.01,000.00,027.5,026.2,000.0,035.9,029.1,13.3,0000.0,0004.00,0015.84,0002.16
2023-11-08 00:46:00,SystemResetWarning,0823.0,5.01,000.00,027.6,026.3,000.0,035.9,029.2,13.3,0000.0,0004.01,0017.20,0002.16
2023-11-08 00:47:00,SystemResetWarning,0823.0,5.00,000.00,027.6,026.5,000.0,035.9,029.2,13.3,0000.0,0004.08,0017.04,0002.17
2023-11-08 00:48:00,SystemResetWarning,0823.0,5.00,000.00,027.6,026.6,000.0,035.9,029.3,13.3,0000.0,0004.14,0016.57,0002.18
2023-11-08 00:49:00,SystemResetWarning,0823.0,5.00,000.00,027.7,026.7,000.0,035.9,029.3,13.2,0000.0,0004.13,0018.17,0002.19
2023-11-08 00:50:00,SystemResetWarning,0823.1,5.00,000.00,027.7,026.8,000.0,035.9,029.3,13.2,0000.0,0004.13,0018.55,0002.19
2023-11-08 00:51:00,SystemResetWarning,0823.1,5.00,000.00,027.8,026.9,000.0,035.9,029.4,13.2,0000.0,0004.10,0018.12,0002.18
2023-11-08 00:52:00,SystemResetWarning,0823.1,5.00,000.00,027.8,027.0,000.0,036.0,029.4,13.2,0000.0,0004.11,0017.98,0002.18
2023-11-08 00:53:00,SystemResetWarning,0823.1,5.01,000.00,027.8,027.0,000.0,036.0,029.5,13.2,0000.0,0004.14,0017.67,0002.17
2023-11-08 00:54:00,SystemResetWarning,0823.2,5.00,000.00,027.9,027.1,000.0,036.0,029.5,13.2,0000.0,0004.17,0017.68,0002.16
2023-11-08 00:55:00,SystemResetWarning,0823.3,5.00,000.00,027.9,027.2,000.0,036.0,029.6,13.1,0000.0,0004.18,0017.80,0002.14
2023-11-08 00:56:00,SystemResetWarning,0823.3,4.99,000.00,027.9,027.2,000.0,036.1,029.6,13.1,0000.0,0004.19,0018.76,0002.13
2023-11-08 00:57:00,SystemResetWarning,0823.3,5.00,000.00,028.0,027.3,000.0,036.1,029.6,13.1,0000.0,0004.22,0018.87,0002.14
2023-11-08 00:58:00,SystemResetWarning,0823.4,5.00,000.00,028.0,027.3,000.0,036.1,029.7,13.1,0000.0,0004.20,0018.89,0002.12
2023-11-08 00:59:00,SystemResetWarning,0823.4,5.00,000.00,028.0,027.3,000.0,036.2,029.7,13.0,0000.0,0004.11,0018.33,0002.10
